Weather History for LIEO - October, 2012

Change the Weather History Date:

Saturday, October 20, 2012

  Actual Average Record
Temperature  
Mean Temperature 72 °F -  
Max Temperature 78 °F 65 °F 82 °F (2001)
Min Temperature 64 °F 49 °F 46 °F (2007)
Cooling Degree Days 7    
Growing Degree Days 22 (Base 50)    
Moisture  
Dew Point 68 °F    
Average Humidity 84    
Maximum Humidity 100    
Minimum Humidity 65    
Precipitation  
Precipitation 0.00 in 0.07 in - ()
Sea Level Pressure  
Sea Level Pressure 30.05 in    
Wind  
Wind Speed 7 mph ()    
Max Wind Speed 13 mph    
Max Gust Speed -    
Visibility 6.2 miles    
Events      
Averages and records for this station are not official NWS values.
T = Trace of Precipitation, MM = Missing Value Source: Averaged Metar Reports

Daily Weather History Graph

Daily Weather History Graph

Search for Another Location

Airport or City:

Trip Planner

Search our weather history database for the weather conditions in past years. The results will help you decide how hot, cold, wet, or windy it might be!

Date:

Astronomy

Oct. 20, 2012 Rise Set
Actual Time 7:39 AM CEST 6:33 PM CEST
Civil Twilight 7:11 AM CEST 7:01 PM CEST
Nautical Twilight 6:39 AM CEST 7:33 PM CEST
Astronomical Twilight 6:07 AM CEST 8:05 PM CEST
Moon 1:02 PM CEST (10/20) 10:59 PM CEST (10/20)
Length of Visible Light 11h 50m
Length of Day
10h 54m
Waxing Crescent, 31% of the Moon is Illuminated
Oct 20
Waxing Crescent
Oct 22
First Quarter
Oct 29
Full
Nov 7
Last Quarter
Nov 13
New

Hourly Weather History & Observations

Time (CEST) Temp. Dew Point Humidity Pressure Visibility Wind Dir Wind Speed Gust Speed Precip Events Conditions
12:20 AM 71.6 °F 68.0 °F 88% 30.09 in 6.2 mi East 5.8 mph - N/A   Partly Cloudy
12:50 AM 71.6 °F 68.0 °F 88% 30.09 in 6.2 mi ENE 5.8 mph - N/A   Partly Cloudy
1:20 AM 69.8 °F 68.0 °F 94% 30.09 in 6.2 mi ENE 3.5 mph - N/A   Partly Cloudy
1:50 AM 69.8 °F 68.0 °F 94% 30.09 in 6.2 mi ENE 4.6 mph - N/A   Partly Cloudy
2:20 AM 69.8 °F 68.0 °F 94% 30.09 in 6.2 mi East 3.5 mph - N/A   Partly Cloudy
2:50 AM 69.8 °F 68.0 °F 94% 30.09 in 6.2 mi NE 4.6 mph - N/A   Partly Cloudy
3:20 AM 69.8 °F 68.0 °F 94% 30.09 in 6.2 mi ENE 3.5 mph - N/A   Partly Cloudy
3:50 AM 69.8 °F 68.0 °F 94% 30.06 in 6.2 mi NE 5.8 mph - N/A   Scattered Clouds
4:20 AM 69.8 °F 68.0 °F 94% 30.06 in 6.2 mi East 4.6 mph - N/A   Scattered Clouds
4:50 AM 71.6 °F 68.0 °F 88% 30.06 in 6.2 mi East 6.9 mph - N/A   Scattered Clouds
5:20 AM 71.6 °F 68.0 °F 88% 30.06 in 6.2 mi East 6.9 mph - N/A   Scattered Clouds
5:50 AM 71.6 °F 68.0 °F 88% 30.06 in 6.2 mi East 6.9 mph - N/A   Scattered Clouds
6:20 AM 71.6 °F 68.0 °F 88% 30.06 in 6.2 mi East 8.1 mph - N/A   Scattered Clouds
6:50 AM 71.6 °F 68.0 °F 88% 30.06 in 6.2 mi East 8.1 mph - N/A   Scattered Clouds
7:20 AM 71.6 °F 66.2 °F 83% 30.06 in 6.2 mi East 6.9 mph - N/A   Scattered Clouds
7:50 AM 71.6 °F 68.0 °F 88% 30.06 in 6.2 mi East 6.9 mph - N/A   Scattered Clouds
8:20 AM 71.6 °F 68.0 °F 88% 30.06 in 6.2 mi East 6.9 mph - N/A   Scattered Clouds
8:50 AM 73.4 °F 68.0 °F 83% 30.06 in 6.2 mi East 8.1 mph - N/A   Scattered Clouds
9:20 AM 73.4 °F 68.0 °F 83% 30.06 in 6.2 mi East 9.2 mph - N/A   Partly Cloudy
9:50 AM 75.2 °F 68.0 °F 78% 30.06 in 6.2 mi East 9.2 mph - N/A   Partly Cloudy
10:20 AM 77.0 °F 68.0 °F 74% 30.06 in 6.2 mi East 10.4 mph - N/A   Partly Cloudy
10:50 AM 77.0 °F 64.4 °F 65% 30.06 in 6.2 mi East 11.5 mph - N/A   Partly Cloudy
11:20 AM 77.0 °F 64.4 °F 65% 30.06 in 6.2 mi East 12.7 mph - N/A   Partly Cloudy
11:50 AM 77.0 °F 64.4 °F 65% 30.06 in 6.2 mi East 11.5 mph - N/A   Partly Cloudy
12:20 PM 77.0 °F 68.0 °F 74% 30.06 in 6.2 mi East 12.7 mph - N/A   Partly Cloudy
12:50 PM 77.0 °F 68.0 °F 74% 30.06 in - East 12.7 mph - N/A   Clear
1:20 PM 75.2 °F 69.8 °F 83% 30.06 in - East 11.5 mph - N/A   Clear
1:50 PM 75.2 °F 69.8 °F 83% 30.04 in - East 10.4 mph - N/A   Clear
2:20 PM 77.0 °F 69.8 °F 78% 30.04 in - East 12.7 mph - N/A   Clear
2:50 PM 78.8 °F 69.8 °F 74% 30.04 in 6.2 mi East 11.5 mph - N/A   Partly Cloudy
3:20 PM 77.0 °F 68.0 °F 74% 30.04 in - East 11.5 mph - N/A   Clear
3:50 PM 77.0 °F 69.8 °F 78% 30.04 in - East 9.2 mph - N/A   Clear
4:20 PM 77.0 °F 69.8 °F 78% 30.01 in - East 11.5 mph - N/A   Clear
4:50 PM 77.0 °F 69.8 °F 78% 30.01 in - East 9.2 mph - N/A   Clear
5:20 PM 75.2 °F 68.0 °F 78% 30.01 in - East 9.2 mph - N/A   Clear
5:50 PM 75.2 °F 68.0 °F 78% 30.01 in - East 6.9 mph - N/A   Clear
6:20 PM 73.4 °F 68.0 °F 83% 30.01 in - East 8.1 mph - N/A   Clear
6:50 PM 73.4 °F 68.0 °F 83% 30.04 in - East 9.2 mph - N/A   Clear
7:20 PM 71.6 °F 68.0 °F 88% 30.04 in - ESE 11.5 mph - N/A   Clear
7:50 PM 71.6 °F 68.0 °F 88% 30.04 in - ESE 10.4 mph - N/A   Clear
8:20 PM 71.6 °F 68.0 °F 88% 30.04 in - ESE 9.2 mph - N/A   Clear
8:50 PM 71.6 °F 68.0 °F 88% 30.04 in - East 8.1 mph - N/A   Clear
9:20 PM 71.6 °F 66.2 °F 83% 30.04 in - East 4.6 mph - N/A   Clear
9:50 PM 71.6 °F 66.2 °F 83% 30.04 in - East 4.6 mph - N/A   Clear
10:20 PM 69.8 °F 66.2 °F 88% 30.04 in - East 3.5 mph - N/A   Clear
10:50 PM 69.8 °F 66.2 °F 88% 30.04 in - SE 3.5 mph - N/A   Clear
11:20 PM 66.2 °F 64.4 °F 94% 30.04 in - Variable 2.3 mph - N/A   Clear
11:50 PM 64.4 °F 64.4 °F 100% 30.04 in - SW 3.5 mph - N/A   Clear